Location: Beaurevoir
(49.9971°N, 3.3085°E)
Time: 02:07:32
(UTC+00:00)

SL-8 R/B - Pass Details

Date: 23 May 2024
Orbit: 652 x 662 km, 48.4° (Epoch: 16 June)

Event Time Altitude Azimuth Distance (km) Brightness Sun altitude
Rises 00:57:18 0° 281° (W) 2,976 7.0 -17.5°
Reaches altitude 10° 00:59:42 10° 275° (W) 2,065 6.1 -17.4°
Maximum altitude 01:04:15 46° 203° (SSW) 882 3.9 -17.1°
Drops below altitude 10° 01:08:48 10° 130° (SE) 2,065 6.0 -16.9°
Sets 01:11:12 0° 125° (SE) 2,976 6.9 -16.7°
